#timestamp,LO_Frequency,Hit,StdDev 
1551844815.9,286046995.4,P
1551844835.7,286046995.8,P
1551844855.6,286046995.1,P
1551844875.4,286046997.6,Y
1551844895.2,286047000.2,P
1551844915.1,286047002.8,N
1551844916.0,286047002.8,N
1551844935.8,286047002.8,N
1551844955.7,286046999.7,N
1551844975.5,286047000.3,N
1551844995.3,286046999.8,N
1551845015.2,286047000.4,N
1551845035.9,286047001.0,N
1551845055.7,286047001.1,N
1551845075.6,286046998.2,N
1551845095.4,286046998.7,N
1551845115.3,286046996.5,N
1551845135.1,286046999.6,N
1551845136.0,286046999.6,N
1551845155.8,286046999.1,N
1551845175.7,286046998.9,N
1551845195.5,286046999.4,N
1551845215.3,286046999.5,N
1551845235.2,286046999.6,N
1551845255.0,286046999.0,N
1551845255.9,286046999.0,N
1551845275.8,286046998.4,N
1551845295.6,286046997.1,N
1551845315.4,286046999.1,N
1551845335.3,286046999.6,N
1551845355.1,286046999.1,N
1551845375.8,286046999.3,N
1551845395.7,286046999.4,N
1551845415.5,286046999.0,N
1551845435.4,286046998.1,N
1551845455.2,286046996.5,N
1551845475.0,286046999.2,N
1551845475.9,286046999.2,N
1551845495.8,286046997.4,N
1551845515.6,286046996.5,Y
1551845535.5,286046999.0,P
1551845555.3,286046998.2,P
1551845575.1,286046999.0,N
1551845595.9,286046998.4,Y
1551845615.7,286046998.7,P
1551845635.5,286046998.8,P
1551845655.4,286046998.3,P
1551845675.2,286046998.3,Y
1551845695.1,286047000.3,P
1551845696.0,286047000.3,N
1551845715.8,286046999.9,N
1551845735.6,286047005.6,Y
1551845755.5,286047003.8,P
1551845775.3,286047004.3,N
1551845795.2,286047003.1,N
1551845815.9,286047003.8,N
1551845835.7,286047003.5,N
1551845855.6,286047004.3,N
1551845875.4,286047001.4,N
1551845895.2,286047004.0,N
1551845915.1,286047003.3,N
1551845916.0,286047003.3,N
1551845935.8,286047005.2,Y
1551845955.7,286047001.6,P
1551845975.5,286047001.9,N
1551845995.3,286047004.2,P
1551846015.2,286047001.9,N
1551846035.0,286047004.2,Y
1551846035.9,286047004.2,P
1551846055.8,286047002.7,P
1551846075.6,286047002.4,P
1551846095.4,286047001.9,N
1551846115.3,286047001.9,N
1551846135.1,286047002.5,Y
1551846155.9,286046999.8,P
1551846175.7,286047000.4,N
1551846195.5,286046999.8,N
1551846215.4,286047000.2,N
1551846235.2,286046999.8,N
1551846255.0,286047000.9,N
1551846255.9,286047000.9,N
1551846275.8,286047000.5,N
1551846295.6,286047000.2,N
1551846315.5,286047002.4,N
1551846335.3,286047000.2,N
1551846355.1,286047000.9,N
1551846375.9,286047001.0,N
1551846395.7,286047000.3,N
1551846415.5,286047000.0,N
1551846435.4,286046998.8,N
1551846455.2,286046998.9,N
1551846475.1,286047000.7,N
1551846476.0,286047000.7,N
1551846495.8,286046999.7,N
1551846515.6,286047004.4,Y
1551846535.5,286047004.0,P
1551846555.3,286047001.5,N
1551846575.2,286047003.7,N
1551846595.9,286047004.1,N
1551846615.7,286047001.6,N
1551846635.6,286047002.1,N
1551846655.4,286047003.9,N
1551846675.2,286047001.5,N
1551846695.1,286047003.9,N
1551846696.0,286047003.9,N
1551846715.8,286047001.8,N
1551846735.7,286047003.0,N
1551846755.5,286047003.6,N
1551846775.3,286047003.7,Y
1551846795.2,286046999.8,P
1551846815.0,286047000.5,N
1551846815.9,286047000.5,N
1551846835.8,286047001.1,N
1551846855.6,286046999.9,N
1551846875.4,286046999.9,N
1551846895.3,286047000.9,N
1551846915.1,286047000.5,N
1551846935.8,286047000.0,N
1551846955.7,286047001.2,N
1551846975.5,286047002.3,N
1551846995.4,286047000.2,N
1551847015.2,286047000.4,N
1551847035.0,286047000.1,N
1551847035.9,286047000.1,N
1551847055.8,286047002.4,N
1551847075.6,286046999.7,N
1551847095.4,286046999.7,N
1551847115.3,286047000.3,N
1551847135.1,286047000.6,N
1551847155.9,286046999.8,N
1551847175.7,286047000.7,N
1551847195.5,286047000.0,N
1551847215.4,286046998.3,N
1551847235.2,286047001.1,N
1551847255.0,286046998.1,N
1551847255.9,286046998.1,N
1551847275.8,286047000.5,N
1551847295.6,286047000.5,N
1551847315.5,286046999.4,N
1551847335.3,286046999.5,N
1551847355.1,286046996.5,Y
1551847375.9,286046998.9,P
1551847395.7,286046996.9,P
1551847415.6,286046998.8,N
1551847435.4,286046999.0,N
1551847455.2,286047001.1,N
1551847475.1,286046999.9,N
1551847476.0,286046999.9,N
1551847495.8,286046998.6,N
1551847515.6,286047001.0,N
1551847535.5,286047000.2,N
1551847555.3,286046999.9,N
1551847575.2,286047000.5,N
1551847595.9,286047000.9,N
1551847615.7,286047000.4,N
1551847635.6,286047000.1,N
1551847655.4,286047000.1,N
1551847675.3,286047000.6,N
1551847695.1,286047000.3,N
1551847696.0,286047000.3,N
1551847715.8,286047000.6,N
1551847735.7,286046999.7,N
1551847755.5,286047000.5,N
1551847775.3,286046999.7,N
1551847795.2,286047000.8,N
1551847815.0,286046998.2,N
1551847815.9,286046998.2,N
1551847835.8,286046998.3,N
1551847855.6,286046998.6,N
1551847875.4,286047000.4,N
1551847895.3,286047000.8,N
1551847915.1,286047000.3,N
1551847935.9,286047000.9,N
1551847955.7,286047000.0,N
1551847975.5,286046999.9,N
1551847995.4,286047002.3,N
1551848015.2,286047000.1,N
1551848035.0,286047001.6,N
1551848035.9,286047001.6,N
1551848055.8,286047001.9,N
1551848075.6,286047002.7,N
1551848095.5,286047000.1,N
1551848115.3,286047000.0,N
1551848135.1,286047000.1,N
1551848155.9,286047001.0,N
1551848175.7,286047002.5,N
1551848195.5,286047004.3,Y
1551848215.4,286047003.8,P
1551848235.2,286047003.5,N
1551848255.1,286047004.3,N
1551848256.0,286047004.3,N
1551848275.8,286047001.4,N
1551848295.6,286047004.1,N
1551848315.5,286047003.8,N
1551848335.3,286047004.4,Y
1551848355.2,286046999.9,P
1551848375.9,286046998.5,N
1551848395.7,286046998.9,N
